Weather History for Hillsdale, MI

Change the Weather History Date:

Monday, January 28, 2013

  Actual Average Record
Temperature  
Mean Temperature 40 °F -  
Max Temperature 48 °F 29 °F 57 °F (2002)
Min Temperature 31 °F 13 °F -10 °F (1966)
Degree Days  
Heating Degree Days 26    
Moisture  
Dew Point 40 °F    
Average Humidity 99    
Maximum Humidity 100    
Minimum Humidity 93    
Precipitation  
Precipitation 0.00 in - - ()
Sea Level Pressure  
Sea Level Pressure 29.93 in    
Wind  
Wind Speed 8 mph (SW)    
Max Wind Speed 13 mph    
Max Gust Speed 20 mph    
Visibility 1 miles    
Events Fog , Rain , Snow    
Averages and records for this station are not official NWS values.
T = Trace of Precipitation, MM = Missing Value Source: NWS Daily Summary

Daily Weather History Graph

Daily Weather History Graph

Search for Another Location

Airport:

Trip Planner

Search our weather history database for the weather conditions in past years. The results will help you decide how hot, cold, wet, or windy it might be!

Date:

Astronomy

Jan. 28, 2013 Rise Set
Actual Time 7:54 AM EST 5:48 PM EST
Civil Twilight 7:24 AM EST 6:18 PM EST
Nautical Twilight 6:51 AM EST 6:52 PM EST
Astronomical Twilight 6:18 AM EST 7:24 PM EST
Moon 7:45 PM EST (1/28) 8:17 AM EST (1/28)
Length of Visible Light 10h 53m
Length of Day
9h 54m
Full, 98% of the Moon is Illuminated
Jan 28
Full
Feb 3
Last Quarter
Feb 10
New
Feb 17
First Quarter
Feb 25
Full

Hourly Weather History & Observations

Time (EST) Temp. Windchill Dew Point Humidity Pressure Visibility Wind Dir Wind Speed Gust Speed Precip Events Conditions
12:14 AM 31.5 °F 22.9 °F 29.7 °F 93% 30.05 in 3.0 mi SSE 10.4 mph - N/A Snow Light Snow
12:35 AM 31.6 °F 23.1 °F 30.2 °F 94% 30.04 in 4.0 mi SSE 10.4 mph - N/A Snow Light Snow
12:55 AM 31.6 °F 25.1 °F 30.6 °F 96% 30.04 in 4.0 mi SSE 6.9 mph 16.1 mph N/A   Overcast
1:14 AM 32.2 °F 23.8 °F 31.1 °F 96% 30.03 in 4.0 mi SSE 10.4 mph - N/A   Overcast
1:35 AM 32.7 °F 25.7 °F 31.6 °F 96% 30.02 in 4.0 mi South 8.1 mph - N/A   Overcast
1:55 AM 32.7 °F 25.0 °F 31.8 °F 96% 30.00 in 2.5 mi SSE 9.2 mph - N/A   Overcast
2:14 AM 33.3 °F 26.4 °F 32.4 °F 96% 29.99 in 1.8 mi South 8.1 mph - N/A   Overcast
2:35 AM 33.6 °F 26.2 °F 33.1 °F 98% 29.99 in 1.2 mi SSE 9.2 mph - N/A   Overcast
2:54 AM 33.6 °F 26.8 °F 33.1 °F 98% 29.98 in 1.2 mi South 8.1 mph - N/A   Overcast
3:14 AM 34.0 °F 27.2 °F 33.3 °F 97% 29.98 in 1.2 mi South 8.1 mph - N/A   Overcast
3:35 AM 34.0 °F 28.8 °F 33.4 °F 98% 29.97 in 1.2 mi South 5.8 mph - N/A   Overcast
3:54 AM 34.2 °F 28.2 °F 33.6 °F 98% 29.96 in 0.8 mi South 6.9 mph - N/A   Overcast
4:15 AM 34.2 °F 28.2 °F 33.8 °F 99% 29.94 in 0.5 mi SSE 6.9 mph - N/A Snow Light Snow
4:35 AM 34.3 °F 27.7 °F 34.0 °F 99% 29.94 in 0.5 mi South 8.1 mph - N/A Fog Fog
4:54 AM 34.9 °F 28.3 °F 34.3 °F 98% 29.93 in 0.2 mi South 8.1 mph - N/A Snow Light Snow
5:15 AM 35.1 °F 27.9 °F 34.7 °F 99% 29.92 in 0.2 mi South 9.2 mph - N/A Snow Light Snow
5:34 AM 35.2 °F 28.1 °F 35.1 °F 99% 29.91 in 0.5 mi South 9.2 mph - N/A Snow Light Snow
5:54 AM 36.0 °F 29.6 °F 35.6 °F 99% 29.91 in 1.0 mi South 8.1 mph - N/A   Light Drizzle
6:15 AM 36.0 °F 29.0 °F 35.8 °F 99% 29.90 in 0.8 mi South 9.2 mph - N/A   Overcast
6:34 AM 36.0 °F 28.0 °F 35.6 °F 99% 29.89 in 0.5 mi South 11.5 mph - N/A Fog Fog
6:55 AM 36.7 °F 29.4 °F 36.3 °F 99% 29.90 in 0.2 mi South 10.4 mph - N/A Snow Light Snow
7:14 AM 37.0 °F 30.4 °F 36.9 °F 99% 29.89 in 0.2 mi South 9.2 mph - N/A Snow Light Snow
7:34 AM 37.8 °F 31.8 °F 37.6 °F 99% 29.88 in 0.2 mi South 8.1 mph - N/A Fog Fog
7:55 AM 38.5 °F 32.1 °F 38.1 °F 99% 29.88 in 0.2 mi South 9.2 mph - N/A Rain Light Rain
8:14 AM 38.7 °F 32.4 °F 38.5 °F 99% 29.87 in 0.2 mi South 9.2 mph - N/A Fog Fog
8:35 AM 39.6 °F 34.0 °F 39.0 °F 98% 29.87 in 0.2 mi SSW 8.1 mph - N/A Rain Light Rain
8:55 AM 39.7 °F 33.2 °F 39.6 °F 99% 29.87 in 0.2 mi SSW 10.4 mph - N/A Rain Light Rain
9:14 AM 40.5 °F 35.1 °F 40.3 °F 99% 29.87 in 0.5 mi SSW 8.1 mph - N/A   Drizzle
9:34 AM 41.4 °F 35.7 °F 41.0 °F 99% 29.87 in 0.8 mi SSW 9.2 mph - N/A Rain Light Rain
9:54 AM 43.2 °F 37.0 °F 42.8 °F 99% 29.87 in 1.0 mi SSW 11.5 mph - N/A   Overcast
10:15 AM 43.9 °F 38.3 °F 43.9 °F 100% 29.87 in 1.0 mi SW 10.4 mph 18.4 mph N/A   Light Drizzle
10:34 AM 44.1 °F 38.1 °F 43.9 °F 99% 29.88 in 1.0 mi SW 11.5 mph - N/A   Overcast
10:54 AM 44.1 °F 38.1 °F 43.9 °F 99% 29.88 in 0.5 mi SW 11.5 mph 16.1 mph N/A Fog Fog
11:14 AM 44.6 °F 38.8 °F 44.2 °F 99% 29.89 in 0.5 mi SW 11.5 mph - N/A Rain Rain
11:35 AM 44.8 °F 39.9 °F 44.4 °F 99% 29.89 in 0.8 mi SW 9.2 mph - N/A   Light Drizzle
11:54 AM 45.1 °F 40.3 °F 45.0 °F 99% 29.89 in 0.2 mi SW 9.2 mph - N/A Fog Fog
12:15 PM 45.1 °F 40.8 °F 45.1 °F 100% 29.88 in 0.2 mi SW 8.1 mph - N/A Fog Fog
12:34 PM 45.5 °F 41.3 °F 45.5 °F 100% 29.87 in 0.2 mi SW 8.1 mph - N/A Rain Light Rain
12:55 PM 46.0 °F 41.4 °F 45.9 °F 99% 29.87 in 0.2 mi SW 9.2 mph - N/A Fog Fog
1:34 PM 48.0 °F - 48.0 °F 100% 29.87 in 0.8 mi WSW 10.4 mph 18.4 mph N/A   Overcast
1:55 PM 48.6 °F - 48.4 °F 99% 29.86 in 0.8 mi WSW 10.4 mph 17.3 mph N/A   Overcast
2:15 PM 48.6 °F - 48.6 °F 100% 29.86 in 1.0 mi WSW 12.7 mph 19.6 mph N/A   Overcast
2:34 PM 48.6 °F - 48.6 °F 100% 29.87 in 1.0 mi WSW 12.7 mph 19.6 mph N/A   Overcast
2:55 PM 48.6 °F - 48.6 °F 100% 29.87 in 1.0 mi WSW 12.7 mph 19.6 mph N/A   Overcast
3:15 PM 48.4 °F - 48.4 °F 100% 29.88 in 1.2 mi West 9.2 mph 18.4 mph N/A   Overcast
3:34 PM 48.0 °F - 48.0 °F 100% 29.89 in 1.2 mi West 10.4 mph 16.1 mph N/A   Overcast
3:55 PM 47.8 °F - 47.7 °F 99% 29.89 in 1.2 mi West 8.1 mph - N/A   Overcast
4:14 PM 47.8 °F - 47.7 °F 99% 29.89 in 2.0 mi West 9.2 mph - N/A   Overcast
4:34 PM 47.3 °F - 47.1 °F 99% 29.91 in 2.0 mi West 5.8 mph - N/A   Overcast
4:55 PM 46.8 °F - 46.8 °F 100% 29.92 in 1.5 mi West 11.5 mph - N/A   Overcast
5:14 PM 46.0 °F 41.4 °F 46.0 °F 100% 29.92 in 1.0 mi West 9.2 mph - N/A   Overcast
5:35 PM 44.4 °F 39.0 °F 44.2 °F 99% 29.94 in 0.2 mi WNW 10.4 mph - N/A Fog Fog
5:55 PM 43.3 °F 39.2 °F 43.2 °F 99% 29.94 in 0.2 mi WNW 6.9 mph - N/A Fog Fog
6:14 PM 42.6 °F 39.0 °F 42.4 °F 99% 29.94 in 0.2 mi WNW 5.8 mph - N/A Fog Fog
6:35 PM 42.4 °F 37.5 °F 42.4 °F 100% 29.95 in 0.2 mi West 8.1 mph - N/A Fog Fog
6:55 PM 42.3 °F 37.9 °F 42.1 °F 99% 29.96 in 2.0 mi West 6.9 mph - N/A   Overcast
7:14 PM 42.1 °F 39.2 °F 41.9 °F 99% 29.97 in 2.0 mi West 4.6 mph - N/A   Overcast
7:35 PM 41.7 °F 38.0 °F 41.5 °F 99% 29.97 in 1.0 mi West 5.8 mph - N/A   Overcast
7:55 PM 40.8 °F 37.8 °F 40.6 °F 99% 29.98 in 0.2 mi West 4.6 mph - N/A Fog Fog
8:14 PM 40.5 °F 37.3 °F 40.3 °F 99% 29.98 in 0.2 mi WNW 4.6 mph - N/A Fog Fog
8:34 PM 40.6 °F 36.7 °F 40.5 °F 99% 29.98 in 0.5 mi NW 5.8 mph - N/A Fog Fog
8:55 PM 40.3 °F 37.1 °F 39.9 °F 99% 29.99 in 0.2 mi WNW 4.6 mph - N/A Fog Fog
9:14 PM 39.7 °F - 39.6 °F 99% 29.98 in 0.2 mi Calm Calm - N/A Fog Fog
9:35 PM 39.4 °F - 39.0 °F 99% 29.98 in 0.2 mi Calm Calm - N/A Fog Fog
9:54 PM 39.4 °F - 39.2 °F 99% 29.98 in 0.2 mi Calm Calm - N/A Fog Fog
10:15 PM 38.7 °F - 38.5 °F 99% 29.98 in 0.2 mi Calm Calm - N/A Fog Fog
10:35 PM 38.8 °F - 38.7 °F 99% 29.98 in 0.2 mi Calm Calm - N/A Fog Fog
10:55 PM 38.8 °F - 38.7 °F 99% 29.98 in 0.5 mi Calm Calm - N/A Fog Fog
11:14 PM 38.5 °F 36.1 °F 38.3 °F 99% 29.98 in 0.2 mi East 3.5 mph - N/A Fog Fog
11:35 PM 38.3 °F 35.9 °F 38.1 °F 99% 29.98 in 0.2 mi East 3.5 mph - N/A Fog Fog
11:54 PM 38.1 °F 34.6 °F 38.1 °F 100% 29.97 in 0.2 mi East 4.6 mph - N/A Fog Fog